Location: Brabourne
(51.1333°N, 1.0000°E)
Time: 12:30:33
(UTC+00:00)

IRS-1D - Pass Details

Date: 28 October 2021
Orbit: 739 x 817 km, 98.6° (Epoch: 30 November)

Event Time Altitude Azimuth Distance (km) Brightness Sun altitude
Rises 01:39:25 0° 22° (NNE) 3,252 7.4 -45.0°
Reaches altitude 10° 01:42:03 10° 34° (NE) 2,308 6.5 -44.7°
Enters shadow 01:42:05 10° 34° (NE) 2,292 6.5 -44.7°
